Location: Erskine
(52.3216°N, 112.8806°W)
Time: 12:56:24
(UTC+00:00)

MOZHAYETS 4 - Pass Details

Date: 11 December 2023
Orbit: 654 x 672 km, 98.3° (Epoch: 03 March)

Event Time Altitude Azimuth Distance (km) Brightness Sun altitude
Rises 01:33:04 0° 3° (N) 3,038 10.9 -19.3°
Reaches altitude 10° 01:36:19 10° 338° (NNW) 2,120 10.4 -19.7°
Maximum altitude 01:38:38 14° 308° (NW) 1,867 10.5 -20.1°
Drops below altitude 10° 01:40:56 10° 278° (W) 2,113 11.3 -20.4°
Sets 01:44:10 0° 253° (WSW) 3,022 12.6 -20.9°
